Погода в Богословке

Россия / Тамбовская область     52°31′43″N   41°06′02″E
темп.,
°C
ветер,
м/с
пор.,
м/с
влажн.,
%
обл.,
%
осадки,
мм/ч
давл.,
гПа
погр.,
м
10 августа, ср
ср1000:00+20всв4960100 0.0 1017154
03:00+19св345927 0.0 101764
06:00+17св346798 0.0 101876
09:00+24св334891 0.0 1017340
12:00+29с223799 0.0 1017956
15:00+30ссв2132100 0.0 10161459
18:00+28с4643100 0.0 1016172
21:00+20ссв71374100 0.0 1018332
11 августа, чт
чт1100:00+20св61178100 0.0 1018297
03:00+18св5108695 0.0 1018221
06:00+18св6108793 0.0 1019261
09:00+23св676273 0.0 1019468
12:00+28всв564427 0.0 10191048
15:00+31всв563646 0.0 10182106
18:00+29св69455 0.0 1018603
21:00+22св5126921 0.6 1020279
12 августа, пт
пт1200:00+19всв488845 0.8 1021145
03:00+17всв48910 0.8 1021172
06:00+17всв49860 0.0 1022199
09:00+24всв57590 0.0 1022512
12:00+29всв55400 0.0 10221183
15:00+30всв44340 0.0 10211712
18:00+29всв35405 0.0 1020198
21:00+23всв465294 0.0 102180
13 августа, сб
сб1300:00+21всв3560100 0.0 102279
03:00+19всв3567100 0.0 102287
06:00+19в346999 0.0 102388
09:00+24в4551100 0.0 1023406
12:00+27в464399 0.0 1022816
15:00+30в443482 0.0 10211553
18:00+29св343991 0.0 1020138
21:00+24св484361 0.0 1020160
14 августа, вс
вс1400:00+21в41153100 0.0 1020193
03:00+20в495096 0.0 1020159
06:00+19в495827 0.0 1020155
09:00+25в454791 0.0 1020451
12:00+29в33346 0.0 10201487
15:00+31в33285 0.0 10182011
18:00+29всв353523 0.0 1018166
21:00+23в41041100 0.0 1019185